Regional Weather Roundup
Issued by NWS

Home | Current Version | Previous Version | Text Only | Print | Product List | Glossary On
Versions: 1 2 3 4 5 6 7 8 9 10 11 12 13 14 15 16 17 18 19 20 21 22 23 24 25 26 27 28 29 30 31 32 33 34 35 36 37 38 39 40 41 42 43
000
ASUS42 KFFC 272203
RWRGA
WEATHER ROUNDUP FOR GEORGIA
NATIONAL WEATHER SERVICE PEACHTREE CITY GA
500 PM EST SAT DEC 27 2014

NOTE: "FAIR" INDICATES FEW OR NO CLOUDS BELOW 12,000 FEET WITH NO
SIGNIFICANT WEATHER AND/OR OBSTRUCTIONS TO VISIBILITY.

* = USE WITH CAUTION. THE STATIONS MARKED WITH AN ASTERISK MAY NOT
REPORT WEATHER SUCH AS PRECIPITATION, FOG, OR THUNDER AND ARE NOT
QUALITY CONTROLLED BY NWS.

THE REMARK "TC" DENOTES TEMPERATURE READING IN DEGREES CELSIUS.

GAZ001>058-272300-
NORTH GEORGIA

CITY           SKY/WX    TMP DP  RH WIND       PRES   REMARKS
ATLANTA        MOCLDY    59  42  53 CALM      30.23R
ATHENS         PTCLDY    61  39  44 S3        30.21F
CHAMBLEE       CLOUDY    59  41  51 CALM      30.21R
PEACHTREE CITY CLOUDY    58  48  69 CALM      30.23R
ROME           CLOUDY    53  46  77 NE3       30.17F
WEST ATLANTA   CLOUDY    59  44  57 CALM      30.22R
GAINESVILLE    MOCLDY    57  38  48 CALM      30.23R
CARTERSVILLE   CLOUDY    56  43  61 E7        30.15F


CITY           SKY/WX    TMP DP  RH WIND       PRES   REMARKS
DALTON*        MOCLDY    54  45  71 CALM      30.20S
LAWRENCEVILLE* MOCLDY    61  36  39 CALM      30.20S
MARIETTA       MOCLDY    58  43  56 E3        30.21R
KENNESAW*      MOCLDY    57  43  58 E6        30.23R
$$

GAZ059>098-102>109-272300-
CENTRAL GEORGIA

CITY           SKY/WX    TMP DP  RH WIND       PRES   REMARKS
AUGUSTA-BUSH   PTCLDY    62  43  49 E5        30.21F
AUGUSTA-DANIEL PTCLDY    64  42  44 E5        30.22F
COLUMBUS       LGT RAIN  61  52  72 W6        30.25R
MACON          MOCLDY    64  50  60 CALM      30.20S
ROBINS AFB     MOCLDY    65  50  58 CALM      30.19F


CITY           SKY/WX    TMP DP  RH WIND       PRES   REMARKS
LAGRANGE*      CLOUDY    62  53  72 W3        30.24R
SYLVANIA*      PTCLDY    67  59  74 E3        30.23S
MILLEDGEVILLE* MOCLDY    63  50  63 CALM      30.21S
$$

GAZ099>101-110>166-272300-
SOUTH GEORGIA

CITY           SKY/WX    TMP DP  RH WIND       PRES   REMARKS
SAVANNAH       PTCLDY    65  51  60 E8        30.23R
VALDOSTA       PTCLDY    71  56  58 S6        30.19R
ALMA           CLEAR     70  56  61 SE3       30.20R
ST SIMONS      CLEAR     64  55  72 NE10      30.22R
FT STEWART     CLEAR     66  54  64 E6        30.20S
ALBANY         MOCLDY    70  53  54 E3        30.21R
HUNTER AFB     CLEAR     63  50  62 E6        30.21R
MOODY AFB      CLEAR     73  56  56 S6        30.20R
BRUNSWICK      CLEAR     63  54  72 NE8       30.23R


CITY           SKY/WX    TMP DP  RH WIND       PRES   REMARKS
BAINBRIDGE*    PTCLDY    73  59  60 N3        30.20R
MOULTRIE*      PTCLDY    70  59  68 CALM      30.21R
VIDALIA*       PTCLDY    68  55  64 CALM      30.21S
WAYCROSS*      PTCLDY    74  61  63 SE5       30.19R
DOUGLAS*       CLEAR     72  55  56 E3        30.22R
$$



USA.gov is the U.S. government's official web portal to all federal, state and local government web resources and services.